owner,sensor,date,latitude,longitude,vertical_datum,mass_concentration_of_oxygen_in_sea_water,qcFlag 
SCCF RECON,ioos:station:SCCF:51:1,2010-07-01T00:00:00Z,26.5545,-82.1715,1.73,6.08,1111122 
SCCF RECON,ioos:station:SCCF:51:1,2010-07-01T01:00:00Z,26.5545,-82.1715,1.652,5.81,1111122 
SCCF RECON,ioos:station:SCCF:51:1,2010-07-01T02:00:00Z,26.5545,-82.1715,1.574,5.7,1111122 
SCCF RECON,ioos:station:SCCF:51:1,2010-07-01T03:00:00Z,26.5545,-82.1715,1.518,5.57,1111122 
SCCF RECON,ioos:station:SCCF:51:1,2010-07-01T04:00:00Z,26.5545,-82.1715,1.515,5.45,1111122 
SCCF RECON,ioos:station:SCCF:51:1,2010-07-01T05:00:00Z,26.5545,-82.1715,1.59,5.67,1111122 
SCCF RECON,ioos:station:SCCF:51:1,2010-07-01T06:00:00Z,26.5545,-82.1715,1.683,5.14,1111122 
SCCF RECON,ioos:station:SCCF:51:1,2010-07-01T07:00:00Z,26.5545,-82.1715,1.802,5.34,1111122 
SCCF RECON,ioos:station:SCCF:51:1,2010-07-01T08:00:00Z,26.5545,-82.1715,1.889,4.82,1111122 
SCCF RECON,ioos:station:SCCF:51:1,2010-07-01T09:00:00Z,26.5545,-82.1715,1.915,4.45,1111122 
SCCF RECON,ioos:station:SCCF:51:1,2010-07-01T10:00:00Z,26.5545,-82.1715,1.879,4.69,1111122 
SCCF RECON,ioos:station:SCCF:51:1,2010-07-01T11:00:00Z,26.5545,-82.1715,1.849,4.78,1111122 
SCCF RECON,ioos:station:SCCF:51:1,2010-07-01T12:00:00Z,26.5545,-82.1715,1.82,4.95,1111122 
SCCF RECON,ioos:station:SCCF:51:1,2010-07-01T13:00:00Z,26.5545,-82.1715,1.788,5.27,1111122 
SCCF RECON,ioos:station:SCCF:51:1,2010-07-01T14:00:00Z,26.5545,-82.1715,1.76,5.4,1111122 
SCCF RECON,ioos:station:SCCF:51:1,2010-07-01T15:00:00Z,26.5545,-82.1715,1.746,5.36,1111122 
SCCF RECON,ioos:station:SCCF:51:1,2010-07-01T16:00:00Z,26.5545,-82.1715,1.759,6.0,1111122 
SCCF RECON,ioos:station:SCCF:51:1,2010-07-01T17:00:00Z,26.5545,-82.1715,1.796,6.47,1111122 
SCCF RECON,ioos:station:SCCF:51:1,2010-07-01T18:00:00Z,26.5545,-82.1715,1.855,6.84,1111122 
SCCF RECON,ioos:station:SCCF:51:1,2010-07-01T19:00:00Z,26.5545,-82.1715,1.918,6.6,1111122 
SCCF RECON,ioos:station:SCCF:51:1,2010-07-01T20:00:00Z,26.5545,-82.1715,1.953,6.21,1111122 
SCCF RECON,ioos:station:SCCF:51:1,2010-07-01T21:00:00Z,26.5545,-82.1715,1.941,6.3,1111122 
SCCF RECON,ioos:station:SCCF:51:1,2010-07-01T22:00:00Z,26.5545,-82.1715,1.899,6.65,1111122 
SCCF RECON,ioos:station:SCCF:51:1,2010-07-01T23:00:00Z,26.5545,-82.1715,1.845,6.85,1111122 
SCCF RECON,ioos:station:SCCF:51:1,2010-07-02T00:00:00Z,26.5545,-82.1715,1.751,6.64,1111122 
SCCF RECON,ioos:station:SCCF:51:1,2010-07-02T01:00:00Z,26.5545,-82.1715,1.652,6.44,1111122 
SCCF RECON,ioos:station:SCCF:51:1,2010-07-02T02:00:00Z,26.5545,-82.1715,1.568,6.22,1111122 
SCCF RECON,ioos:station:SCCF:51:1,2010-07-02T03:00:00Z,26.5545,-82.1715,1.509,6.48,1111122 
SCCF RECON,ioos:station:SCCF:51:1,2010-07-02T04:00:00Z,26.5545,-82.1715,1.508,6.22,1111122 
SCCF RECON,ioos:station:SCCF:51:1,2010-07-02T05:00:00Z,26.5545,-82.1715,1.554,6.42,1111122 
SCCF RECON,ioos:station:SCCF:51:1,2010-07-02T06:00:00Z,26.5545,-82.1715,1.616,6.25,1111122 
SCCF RECON,ioos:station:SCCF:51:1,2010-07-02T07:00:00Z,26.5545,-82.1715,1.708,5.41,1111122 
SCCF RECON,ioos:station:SCCF:51:1,2010-07-02T08:00:00Z,26.5545,-82.1715,1.8,4.88,1111122 
SCCF RECON,ioos:station:SCCF:51:1,2010-07-02T09:00:00Z,26.5545,-82.1715,1.881,5.07,1111122 
SCCF RECON,ioos:station:SCCF:51:1,2010-07-02T10:00:00Z,26.5545,-82.1715,1.876,4.58,1111122 
SCCF RECON,ioos:station:SCCF:51:1,2010-07-02T11:00:00Z,26.5545,-82.1715,1.842,4.99,1111122 
SCCF RECON,ioos:station:SCCF:51:1,2010-07-02T12:00:00Z,26.5545,-82.1715,1.792,5.45,1111122 
SCCF RECON,ioos:station:SCCF:51:1,2010-07-02T13:00:00Z,26.5545,-82.1715,1.747,5.64,1111122 
SCCF RECON,ioos:station:SCCF:51:1,2010-07-02T14:00:00Z,26.5545,-82.1715,1.696,5.78,1111122 
SCCF RECON,ioos:station:SCCF:51:1,2010-07-02T15:00:00Z,26.5545,-82.1715,1.662,5.39,1111122 
SCCF RECON,ioos:station:SCCF:51:1,2010-07-02T16:00:00Z,26.5545,-82.1715,1.653,6.24,1111122 
SCCF RECON,ioos:station:SCCF:51:1,2010-07-02T17:00:00Z,26.5545,-82.1715,1.676,6.65,1111122 
SCCF RECON,ioos:station:SCCF:51:1,2010-07-02T18:00:00Z,26.5545,-82.1715,1.726,6.63,1111122 
SCCF RECON,ioos:station:SCCF:51:1,2010-07-02T19:00:00Z,26.5545,-82.1715,1.78,7.07,1111122 
SCCF RECON,ioos:station:SCCF:51:1,2010-07-02T20:00:00Z,26.5545,-82.1715,1.823,6.98,1111122 
SCCF RECON,ioos:station:SCCF:51:1,2010-07-02T21:00:00Z,26.5545,-82.1715,1.84,7.01,1111122 
SCCF RECON,ioos:station:SCCF:51:1,2010-07-02T22:00:00Z,26.5545,-82.1715,1.812,6.96,1111122 
SCCF RECON,ioos:station:SCCF:51:1,2010-07-02T23:00:00Z,26.5545,-82.1715,1.791,6.83,1111122 
SCCF RECON,ioos:station:SCCF:51:1,2010-07-03T00:00:00Z,26.5545,-82.1715,1.758,6.85,1111122 
SCCF RECON,ioos:station:SCCF:51:1,2010-07-03T01:00:00Z,26.5545,-82.1715,1.7,6.58,1111122 
SCCF RECON,ioos:station:SCCF:51:1,2010-07-03T02:00:00Z,26.5545,-82.1715,1.624,6.41,1111122 
SCCF RECON,ioos:station:SCCF:51:1,2010-07-03T03:00:00Z,26.5545,-82.1715,1.566,6.22,1111122 
SCCF RECON,ioos:station:SCCF:51:1,2010-07-03T04:00:00Z,26.5545,-82.1715,1.51,6.42,1111122 
SCCF RECON,ioos:station:SCCF:51:1,2010-07-03T05:00:00Z,26.5545,-82.1715,1.541,6.36,1111122 
SCCF RECON,ioos:station:SCCF:51:1,2010-07-03T06:00:00Z,26.5545,-82.1715,1.607,6.19,1111122 
SCCF RECON,ioos:station:SCCF:51:1,2010-07-03T07:00:00Z,26.5545,-82.1715,1.707,5.76,1111122 
SCCF RECON,ioos:station:SCCF:51:1,2010-07-03T08:00:00Z,26.5545,-82.1715,1.82,5.62,1111122 
SCCF RECON,ioos:station:SCCF:51:1,2010-07-03T09:00:00Z,26.5545,-82.1715,1.897,5.33,1111122 
SCCF RECON,ioos:station:SCCF:51:1,2010-07-03T10:00:00Z,26.5545,-82.1715,1.942,5.5,1111122 
SCCF RECON,ioos:station:SCCF:51:1,2010-07-03T11:00:00Z,26.5545,-82.1715,1.936,5.37,1111122 
SCCF RECON,ioos:station:SCCF:51:1,2010-07-03T12:00:00Z,26.5545,-82.1715,1.921,5.43,1111122 
SCCF RECON,ioos:station:SCCF:51:1,2010-07-03T13:00:00Z,26.5545,-82.1715,1.871,5.38,1111122 
SCCF RECON,ioos:station:SCCF:51:1,2010-07-03T14:00:00Z,26.5545,-82.1715,1.808,5.69,1111122 
SCCF RECON,ioos:station:SCCF:51:1,2010-07-03T15:00:00Z,26.5545,-82.1715,1.745,5.39,1111122 
SCCF RECON,ioos:station:SCCF:51:1,2010-07-03T16:00:00Z,26.5545,-82.1715,1.694,5.32,1111122 
SCCF RECON,ioos:station:SCCF:51:1,2010-07-03T17:00:00Z,26.5545,-82.1715,1.657,5.35,1111122 
SCCF RECON,ioos:station:SCCF:51:1,2010-07-03T18:00:00Z,26.5545,-82.1715,1.642,5.74,1111122 
SCCF RECON,ioos:station:SCCF:51:1,2010-07-03T19:00:00Z,26.5545,-82.1715,1.679,6.17,1111122 
SCCF RECON,ioos:station:SCCF:51:1,2010-07-03T20:00:00Z,26.5545,-82.1715,1.744,6.38,1111122 
SCCF RECON,ioos:station:SCCF:51:1,2010-07-03T21:00:00Z,26.5545,-82.1715,1.826,6.13,1111122 
SCCF RECON,ioos:station:SCCF:51:1,2010-07-03T22:00:00Z,26.5545,-82.1715,1.879,5.9,1111122 
SCCF RECON,ioos:station:SCCF:51:1,2010-07-03T23:00:00Z,26.5545,-82.1715,1.902,6.11,1111122 
SCCF RECON,ioos:station:SCCF:51:1,2010-07-04T00:00:00Z,26.5545,-82.1715,1.871,5.9,1111122 
SCCF RECON,ioos:station:SCCF:51:1,2010-07-04T01:00:00Z,26.5545,-82.1715,1.799,6.0,1111122 
SCCF RECON,ioos:station:SCCF:51:1,2010-07-04T02:00:00Z,26.5545,-82.1715,1.726,6.09,1111122 
SCCF RECON,ioos:station:SCCF:51:1,2010-07-04T03:00:00Z,26.5545,-82.1715,1.674,6.0,1111122 
SCCF RECON,ioos:station:SCCF:51:1,2010-07-04T04:00:00Z,26.5545,-82.1715,1.637,5.71,1111122 
SCCF RECON,ioos:station:SCCF:51:1,2010-07-04T05:00:00Z,26.5545,-82.1715,1.63,5.04,1111122 
SCCF RECON,ioos:station:SCCF:51:1,2010-07-04T06:00:00Z,26.5545,-82.1715,1.661,5.73,1111122 
SCCF RECON,ioos:station:SCCF:51:1,2010-07-04T07:00:00Z,26.5545,-82.1715,1.741,5.74,1111122 
SCCF RECON,ioos:station:SCCF:51:1,2010-07-04T08:00:00Z,26.5545,-82.1715,1.839,5.47,1111122 
SCCF RECON,ioos:station:SCCF:51:1,2010-07-04T09:00:00Z,26.5545,-82.1715,1.909,5.17,1111122 
SCCF RECON,ioos:station:SCCF:51:1,2010-07-04T10:00:00Z,26.5545,-82.1715,1.992,4.99,1111122 
SCCF RECON,ioos:station:SCCF:51:1,2010-07-04T11:00:00Z,26.5545,-82.1715,2.02,4.88,1111122 
SCCF RECON,ioos:station:SCCF:51:1,2010-07-04T12:00:00Z,26.5545,-82.1715,2.0,4.33,1111122 
SCCF RECON,ioos:station:SCCF:51:1,2010-07-04T13:00:00Z,26.5545,-82.1715,1.93,4.87,1111122 
SCCF RECON,ioos:station:SCCF:51:1,2010-07-04T14:00:00Z,26.5545,-82.1715,1.869,4.85,1111122 
SCCF RECON,ioos:station:SCCF:51:1,2010-07-04T15:00:00Z,26.5545,-82.1715,1.802,5.22,1111122 
SCCF RECON,ioos:station:SCCF:51:1,2010-07-04T16:00:00Z,26.5545,-82.1715,1.735,5.24,1111122 
SCCF RECON,ioos:station:SCCF:51:1,2010-07-04T17:00:00Z,26.5545,-82.1715,1.66,5.29,1111122 
SCCF RECON,ioos:station:SCCF:51:1,2010-07-04T18:00:00Z,26.5545,-82.1715,1.601,5.59,1111122 
SCCF RECON,ioos:station:SCCF:51:1,2010-07-04T19:00:00Z,26.5545,-82.1715,1.612,5.94,1111122 
SCCF RECON,ioos:station:SCCF:51:1,2010-07-04T20:00:00Z,26.5545,-82.1715,1.647,6.27,1111122 
SCCF RECON,ioos:station:SCCF:51:1,2010-07-04T21:00:00Z,26.5545,-82.1715,1.708,6.59,1111122 
SCCF RECON,ioos:station:SCCF:51:1,2010-07-04T22:00:00Z,26.5545,-82.1715,1.77,5.89,1111122 
SCCF RECON,ioos:station:SCCF:51:1,2010-07-04T23:00:00Z,26.5545,-82.1715,1.797,5.48,1111122 
SCCF RECON,ioos:station:SCCF:51:1,2010-07-05T00:00:00Z,26.5545,-82.1715,1.776,5.35,1111122 
SCCF RECON,ioos:station:SCCF:51:1,2010-07-05T01:00:00Z,26.5545,-82.1715,1.791,5.14,1111122 
SCCF RECON,ioos:station:SCCF:51:1,2010-07-05T02:00:00Z,26.5545,-82.1715,1.8,4.89,1111122 
SCCF RECON,ioos:station:SCCF:51:1,2010-07-05T03:00:00Z,26.5545,-82.1715,1.792,5.21,1111122 
SCCF RECON,ioos:station:SCCF:51:1,2010-07-05T04:00:00Z,26.5545,-82.1715,1.761,5.67,1111122 
SCCF RECON,ioos:station:SCCF:51:1,2010-07-05T05:00:00Z,26.5545,-82.1715,1.731,5.64,1111122 
SCCF RECON,ioos:station:SCCF:51:1,2010-07-05T06:00:00Z,26.5545,-82.1715,1.721,4.72,1111122 
SCCF RECON,ioos:station:SCCF:51:1,2010-07-05T07:00:00Z,26.5545,-82.1715,1.752,5.32,1111122 
SCCF RECON,ioos:station:SCCF:51:1,2010-07-05T08:00:00Z,26.5545,-82.1715,1.809,5.44,1111122 
SCCF RECON,ioos:station:SCCF:51:1,2010-07-05T09:00:00Z,26.5545,-82.1715,1.898,4.9,1111122 
SCCF RECON,ioos:station:SCCF:51:1,2010-07-05T10:00:00Z,26.5545,-82.1715,1.99,4.41,1111122 
SCCF RECON,ioos:station:SCCF:51:1,2010-07-05T11:00:00Z,26.5545,-82.1715,2.001,4.39,1111122 
SCCF RECON,ioos:station:SCCF:51:1,2010-07-05T12:00:00Z,26.5545,-82.1715,1.997,4.2,1111122 
SCCF RECON,ioos:station:SCCF:51:1,2010-07-05T13:00:00Z,26.5545,-82.1715,1.969,4.77,1111122 
SCCF RECON,ioos:station:SCCF:51:1,2010-07-05T14:00:00Z,26.5545,-82.1715,1.935,5.31,1111122 
SCCF RECON,ioos:station:SCCF:51:1,2010-07-05T15:00:00Z,26.5545,-82.1715,1.882,5.49,1111122 
SCCF RECON,ioos:station:SCCF:51:1,2010-07-05T16:00:00Z,26.5545,-82.1715,1.797,5.47,1111122 
SCCF RECON,ioos:station:SCCF:51:1,2010-07-05T17:00:00Z,26.5545,-82.1715,1.71,5.31,1111122 
SCCF RECON,ioos:station:SCCF:51:1,2010-07-05T18:00:00Z,26.5545,-82.1715,1.614,5.51,1111122 
SCCF RECON,ioos:station:SCCF:51:1,2010-07-05T19:00:00Z,26.5545,-82.1715,1.545,5.82,1111122 
SCCF RECON,ioos:station:SCCF:51:1,2010-07-05T20:00:00Z,26.5545,-82.1715,1.626,6.32,1111122 
SCCF RECON,ioos:station:SCCF:51:1,2010-07-05T21:00:00Z,26.5545,-82.1715,1.728,6.27,1111122 
SCCF RECON,ioos:station:SCCF:51:1,2010-07-05T22:00:00Z,26.5545,-82.1715,1.728,6.12,1111122 
SCCF RECON,ioos:station:SCCF:51:1,2010-07-05T23:00:00Z,26.5545,-82.1715,1.706,5.67,1111122 
SCCF RECON,ioos:station:SCCF:51:1,2010-07-06T00:00:00Z,26.5545,-82.1715,1.703,5.91,1111122 
SCCF RECON,ioos:station:SCCF:51:1,2010-07-06T01:00:00Z,26.5545,-82.1715,1.726,5.66,1111122 
SCCF RECON,ioos:station:SCCF:51:1,2010-07-06T02:00:00Z,26.5545,-82.1715,1.727,5.9,1111122 
SCCF RECON,ioos:station:SCCF:51:1,2010-07-06T03:00:00Z,26.5545,-82.1715,1.732,5.78,1111122 
SCCF RECON,ioos:station:SCCF:51:1,2010-07-06T04:00:00Z,26.5545,-82.1715,1.707,5.52,1111122 
SCCF RECON,ioos:station:SCCF:51:1,2010-07-06T05:00:00Z,26.5545,-82.1715,1.711,5.48,1111122 
SCCF RECON,ioos:station:SCCF:51:1,2010-07-06T06:00:00Z,26.5545,-82.1715,1.745,5.4,1111122 
SCCF RECON,ioos:station:SCCF:51:1,2010-07-06T07:00:00Z,26.5545,-82.1715,1.74,5.19,1111122 
SCCF RECON,ioos:station:SCCF:51:1,2010-07-06T08:00:00Z,26.5545,-82.1715,1.77,5.42,1111122 
SCCF RECON,ioos:station:SCCF:51:1,2010-07-06T09:00:00Z,26.5545,-82.1715,1.815,5.56,1111122 
SCCF RECON,ioos:station:SCCF:51:1,2010-07-06T10:00:00Z,26.5545,-82.1715,1.894,5.23,1111122 
SCCF RECON,ioos:station:SCCF:51:1,2010-07-06T11:00:00Z,26.5545,-82.1715,1.967,4.96,1111122 
SCCF RECON,ioos:station:SCCF:51:1,2010-07-06T12:00:00Z,26.5545,-82.1715,2.001,4.86,1111122 
SCCF RECON,ioos:station:SCCF:51:1,2010-07-06T13:00:00Z,26.5545,-82.1715,1.998,4.56,1111122 
SCCF RECON,ioos:station:SCCF:51:1,2010-07-06T14:00:00Z,26.5545,-82.1715,1.959,4.93,1111122 
SCCF RECON,ioos:station:SCCF:51:1,2010-07-06T15:00:00Z,26.5545,-82.1715,1.894,5.61,1111122 
SCCF RECON,ioos:station:SCCF:51:1,2010-07-06T16:00:00Z,26.5545,-82.1715,1.819,5.9,1111122 
SCCF RECON,ioos:station:SCCF:51:1,2010-07-06T17:00:00Z,26.5545,-82.1715,1.737,5.73,1111122 
SCCF RECON,ioos:station:SCCF:51:1,2010-07-06T18:00:00Z,26.5545,-82.1715,1.649,6.06,1111122 
SCCF RECON,ioos:station:SCCF:51:1,2010-07-06T19:00:00Z,26.5545,-82.1715,1.56,6.7,1111122 
SCCF RECON,ioos:station:SCCF:51:1,2010-07-06T20:00:00Z,26.5545,-82.1715,1.5,6.67,1111122 
SCCF RECON,ioos:station:SCCF:51:1,2010-07-06T21:00:00Z,26.5545,-82.1715,1.504,6.87,1111122 
SCCF RECON,ioos:station:SCCF:51:1,2010-07-06T22:00:00Z,26.5545,-82.1715,1.57,7.11,1111122 
SCCF RECON,ioos:station:SCCF:51:1,2010-07-06T23:00:00Z,26.5545,-82.1715,1.647,6.89,1111122 
SCCF RECON,ioos:station:SCCF:51:1,2010-07-07T00:00:00Z,26.5545,-82.1715,1.736,7.01,1111122 
SCCF RECON,ioos:station:SCCF:51:1,2010-07-07T01:00:00Z,26.5545,-82.1715,1.778,6.58,1111122 
SCCF RECON,ioos:station:SCCF:51:1,2010-07-07T02:00:00Z,26.5545,-82.1715,1.788,6.08,1111122 
SCCF RECON,ioos:station:SCCF:51:1,2010-07-07T03:00:00Z,26.5545,-82.1715,1.771,6.49,1111122 
SCCF RECON,ioos:station:SCCF:51:1,2010-07-07T04:00:00Z,26.5545,-82.1715,1.77,6.57,1111122 
SCCF RECON,ioos:station:SCCF:51:1,2010-07-07T05:00:00Z,26.5545,-82.1715,1.793,6.52,1111122 
SCCF RECON,ioos:station:SCCF:51:1,2010-07-07T06:00:00Z,26.5545,-82.1715,1.796,5.8,1111122 
SCCF RECON,ioos:station:SCCF:51:1,2010-07-07T07:00:00Z,26.5545,-82.1715,1.79,6.04,1111122 
SCCF RECON,ioos:station:SCCF:51:1,2010-07-07T08:00:00Z,26.5545,-82.1715,1.797,6.34,1111122 
SCCF RECON,ioos:station:SCCF:51:1,2010-07-07T09:00:00Z,26.5545,-82.1715,1.816,6.37,1111122 
SCCF RECON,ioos:station:SCCF:51:1,2010-07-07T10:00:00Z,26.5545,-82.1715,1.859,6.37,1111122 
SCCF RECON,ioos:station:SCCF:51:1,2010-07-07T11:00:00Z,26.5545,-82.1715,1.9,6.22,1111122 
SCCF RECON,ioos:station:SCCF:51:1,2010-07-07T12:00:00Z,26.5545,-82.1715,1.954,5.44,1111122 
SCCF RECON,ioos:station:SCCF:51:1,2010-07-07T13:00:00Z,26.5545,-82.1715,2.0,5.67,1111122 
SCCF RECON,ioos:station:SCCF:51:1,2010-07-07T14:00:00Z,26.5545,-82.1715,2.007,5.24,1111122 
SCCF RECON,ioos:station:SCCF:51:1,2010-07-07T15:00:00Z,26.5545,-82.1715,1.965,5.68,1111122 
SCCF RECON,ioos:station:SCCF:51:1,2010-07-07T16:00:00Z,26.5545,-82.1715,1.897,6.39,1111122 
SCCF RECON,ioos:station:SCCF:51:1,2010-07-07T17:00:00Z,26.5545,-82.1715,1.79,6.87,1111122 
SCCF RECON,ioos:station:SCCF:51:1,2010-07-07T18:00:00Z,26.5545,-82.1715,1.657,6.89,1111122 
SCCF RECON,ioos:station:SCCF:51:1,2010-07-07T19:00:00Z,26.5545,-82.1715,1.528,7.23,1111122 
SCCF RECON,ioos:station:SCCF:51:1,2010-07-07T20:00:00Z,26.5545,-82.1715,1.419,7.34,1111122 
SCCF RECON,ioos:station:SCCF:51:1,2010-07-07T21:00:00Z,26.5545,-82.1715,1.368,7.59,1111122 
SCCF RECON,ioos:station:SCCF:51:1,2010-07-07T22:00:00Z,26.5545,-82.1715,1.382,7.54,1111122 
SCCF RECON,ioos:station:SCCF:51:1,2010-07-07T23:00:00Z,26.5545,-82.1715,1.444,7.19,1111122 
SCCF RECON,ioos:station:SCCF:51:1,2010-07-08T00:00:00Z,26.5545,-82.1715,1.518,7.04,1111122 
SCCF RECON,ioos:station:SCCF:51:1,2010-07-08T01:00:00Z,26.5545,-82.1715,1.61,7.11,1111122 
SCCF RECON,ioos:station:SCCF:51:1,2010-07-08T02:00:00Z,26.5545,-82.1715,1.696,6.89,1111122 
SCCF RECON,ioos:station:SCCF:51:1,2010-07-08T03:00:00Z,26.5545,-82.1715,1.762,6.68,1111122 
SCCF RECON,ioos:station:SCCF:51:1,2010-07-08T04:00:00Z,26.5545,-82.1715,1.791,6.6,1111122 
SCCF RECON,ioos:station:SCCF:51:1,2010-07-08T05:00:00Z,26.5545,-82.1715,1.798,6.34,1111122 
SCCF RECON,ioos:station:SCCF:51:1,2010-07-08T06:00:00Z,26.5545,-82.1715,1.775,6.46,1111122 
SCCF RECON,ioos:station:SCCF:51:1,2010-07-08T07:00:00Z,26.5545,-82.1715,1.74,6.38,1111122 
SCCF RECON,ioos:station:SCCF:51:1,2010-07-08T08:00:00Z,26.5545,-82.1715,1.722,6.31,1111122 
SCCF RECON,ioos:station:SCCF:51:1,2010-07-08T09:00:00Z,26.5545,-82.1715,1.74,6.27,1111122 
SCCF RECON,ioos:station:SCCF:51:1,2010-07-08T10:00:00Z,26.5545,-82.1715,1.791,6.33,1111122 
SCCF RECON,ioos:station:SCCF:51:1,2010-07-08T11:00:00Z,26.5545,-82.1715,1.859,5.53,1111122 
SCCF RECON,ioos:station:SCCF:51:1,2010-07-08T12:00:00Z,26.5545,-82.1715,1.95,5.14,1111122 
SCCF RECON,ioos:station:SCCF:51:1,2010-07-08T13:00:00Z,26.5545,-82.1715,2.028,5.24,1111122 
SCCF RECON,ioos:station:SCCF:51:1,2010-07-08T14:00:00Z,26.5545,-82.1715,2.064,5.26,1111122 
SCCF RECON,ioos:station:SCCF:51:1,2010-07-08T15:00:00Z,26.5545,-82.1715,2.057,5.52,1111122 
SCCF RECON,ioos:station:SCCF:51:1,2010-07-08T16:00:00Z,26.5545,-82.1715,1.99,5.79,1111122 
SCCF RECON,ioos:station:SCCF:51:1,2010-07-08T17:00:00Z,26.5545,-82.1715,1.894,6.18,1111122 
SCCF RECON,ioos:station:SCCF:51:1,2010-07-08T18:00:00Z,26.5545,-82.1715,1.867,6.87,1111122 
SCCF RECON,ioos:station:SCCF:51:1,2010-07-08T19:00:00Z,26.5545,-82.1715,1.712,6.87,1111122 
SCCF RECON,ioos:station:SCCF:51:1,2010-07-08T20:00:00Z,26.5545,-82.1715,1.581,6.85,1111122 
SCCF RECON,ioos:station:SCCF:51:1,2010-07-08T21:00:00Z,26.5545,-82.1715,1.474,6.84,1111122 
SCCF RECON,ioos:station:SCCF:51:1,2010-07-08T22:00:00Z,26.5545,-82.1715,1.4,6.8,1111122 
SCCF RECON,ioos:station:SCCF:51:1,2010-07-08T23:00:00Z,26.5545,-82.1715,1.417,6.77,1111122 
SCCF RECON,ioos:station:SCCF:51:1,2010-07-09T00:00:00Z,26.5545,-82.1715,1.48,6.76,1111122 
SCCF RECON,ioos:station:SCCF:51:1,2010-07-09T01:00:00Z,26.5545,-82.1715,1.583,6.76,1111122 
SCCF RECON,ioos:station:SCCF:51:1,2010-07-09T02:00:00Z,26.5545,-82.1715,1.702,6.7,1111122 
SCCF RECON,ioos:station:SCCF:51:1,2010-07-09T03:00:00Z,26.5545,-82.1715,1.825,6.69,1111122 
SCCF RECON,ioos:station:SCCF:51:1,2010-07-09T04:00:00Z,26.5545,-82.1715,1.935,6.71,1111122 
SCCF RECON,ioos:station:SCCF:51:1,2010-07-09T05:00:00Z,26.5545,-82.1715,1.94,6.74,1111122 
SCCF RECON,ioos:station:SCCF:51:1,2010-07-09T06:00:00Z,26.5545,-82.1715,1.92,6.77,1111122 
SCCF RECON,ioos:station:SCCF:51:1,2010-07-09T07:00:00Z,26.5545,-82.1715,1.889,6.61,1111122 
SCCF RECON,ioos:station:SCCF:51:1,2010-07-09T08:00:00Z,26.5545,-82.1715,1.88,6.73,1111122 
SCCF RECON,ioos:station:SCCF:51:1,2010-07-09T09:00:00Z,26.5545,-82.1715,1.91,6.72,1111122 
SCCF RECON,ioos:station:SCCF:51:1,2010-07-09T10:00:00Z,26.5545,-82.1715,1.948,6.79,1111122 
SCCF RECON,ioos:station:SCCF:51:1,2010-07-09T11:00:00Z,26.5545,-82.1715,1.996,6.68,1111122 
SCCF RECON,ioos:station:SCCF:51:1,2010-07-09T12:00:00Z,26.5545,-82.1715,2.08,5.47,1111122 
SCCF RECON,ioos:station:SCCF:51:1,2010-07-09T13:00:00Z,26.5545,-82.1715,2.16,5.98,1111122 
SCCF RECON,ioos:station:SCCF:51:1,2010-07-09T14:00:00Z,26.5545,-82.1715,2.21,6.11,1111122 
SCCF RECON,ioos:station:SCCF:51:1,2010-07-09T15:00:00Z,26.5545,-82.1715,2.25,6.23,1111122 
SCCF RECON,ioos:station:SCCF:51:1,2010-07-09T16:00:00Z,26.5545,-82.1715,2.223,6.3,1111122 
SCCF RECON,ioos:station:SCCF:51:1,2010-07-09T17:00:00Z,26.5545,-82.1715,2.136,6.2,1111122 
SCCF RECON,ioos:station:SCCF:51:1,2010-07-09T18:00:00Z,26.5545,-82.1715,2.014,6.73,1111122 
SCCF RECON,ioos:station:SCCF:51:1,2010-07-09T19:00:00Z,26.5545,-82.1715,1.872,6.75,1111122 
SCCF RECON,ioos:station:SCCF:51:1,2010-07-09T20:00:00Z,26.5545,-82.1715,1.725,6.77,1111122 
SCCF RECON,ioos:station:SCCF:51:1,2010-07-09T21:00:00Z,26.5545,-82.1715,1.585,6.76,1111122 
SCCF RECON,ioos:station:SCCF:51:1,2010-07-09T22:00:00Z,26.5545,-82.1715,1.467,6.77,1111122 
SCCF RECON,ioos:station:SCCF:51:1,2010-07-09T23:00:00Z,26.5545,-82.1715,1.377,6.78,1111122 
SCCF RECON,ioos:station:SCCF:51:1,2010-07-10T00:00:00Z,26.5545,-82.1715,1.393,6.76,1111122 
SCCF RECON,ioos:station:SCCF:51:1,2010-07-10T01:00:00Z,26.5545,-82.1715,1.484,6.79,1111122 
SCCF RECON,ioos:station:SCCF:51:1,2010-07-10T02:00:00Z,26.5545,-82.1715,1.61,6.69,1111122 
SCCF RECON,ioos:station:SCCF:51:1,2010-07-10T03:00:00Z,26.5545,-82.1715,1.75,6.64,1111122 
SCCF RECON,ioos:station:SCCF:51:1,2010-07-10T04:00:00Z,26.5545,-82.1715,1.88,6.64,1111122 
SCCF RECON,ioos:station:SCCF:51:1,2010-07-10T05:00:00Z,26.5545,-82.1715,1.95,6.52,1111122 
SCCF RECON,ioos:station:SCCF:51:1,2010-07-10T06:00:00Z,26.5545,-82.1715,1.95,6.53,1111122 
SCCF RECON,ioos:station:SCCF:51:1,2010-07-10T07:00:00Z,26.5545,-82.1715,1.91,6.63,1111122 
SCCF RECON,ioos:station:SCCF:51:1,2010-07-10T08:00:00Z,26.5545,-82.1715,1.88,6.43,1111122 
SCCF RECON,ioos:station:SCCF:51:1,2010-07-10T09:00:00Z,26.5545,-82.1715,1.87,6.47,1111122 
SCCF RECON,ioos:station:SCCF:51:1,2010-07-10T10:00:00Z,26.5545,-82.1715,1.919,6.66,1111122 
SCCF RECON,ioos:station:SCCF:51:1,2010-07-10T11:00:00Z,26.5545,-82.1715,1.98,6.67,1111122 
SCCF RECON,ioos:station:SCCF:51:1,2010-07-10T12:00:00Z,26.5545,-82.1715,2.032,5.75,1111122 
SCCF RECON,ioos:station:SCCF:51:1,2010-07-10T13:00:00Z,26.5545,-82.1715,2.103,5.66,1111122 
SCCF RECON,ioos:station:SCCF:51:1,2010-07-10T14:00:00Z,26.5545,-82.1715,2.173,6.14,1111122 
SCCF RECON,ioos:station:SCCF:51:1,2010-07-10T15:00:00Z,26.5545,-82.1715,2.243,6.43,1111122 
SCCF RECON,ioos:station:SCCF:51:1,2010-07-10T16:00:00Z,26.5545,-82.1715,2.279,6.55,1111122 
SCCF RECON,ioos:station:SCCF:51:1,2010-07-10T17:00:00Z,26.5545,-82.1715,2.24,6.54,1111122 
SCCF RECON,ioos:station:SCCF:51:1,2010-07-10T18:00:00Z,26.5545,-82.1715,2.151,6.61,1111122 
SCCF RECON,ioos:station:SCCF:51:1,2010-07-10T19:00:00Z,26.5545,-82.1715,2.02,6.63,1111122 
SCCF RECON,ioos:station:SCCF:51:1,2010-07-10T20:00:00Z,26.5545,-82.1715,1.865,6.64,1111122 
SCCF RECON,ioos:station:SCCF:51:1,2010-07-10T21:00:00Z,26.5545,-82.1715,1.704,6.63,1111122 
SCCF RECON,ioos:station:SCCF:51:1,2010-07-10T22:00:00Z,26.5545,-82.1715,1.56,6.65,1111122 
SCCF RECON,ioos:station:SCCF:51:1,2010-07-10T23:00:00Z,26.5545,-82.1715,1.438,6.67,1111122 
SCCF RECON,ioos:station:SCCF:51:1,2010-07-11T00:00:00Z,26.5545,-82.1715,1.361,6.66,1111122 
SCCF RECON,ioos:station:SCCF:51:1,2010-07-11T01:00:00Z,26.5545,-82.1715,1.393,6.66,1111122 
SCCF RECON,ioos:station:SCCF:51:1,2010-07-11T02:00:00Z,26.5545,-82.1715,1.493,6.64,1111122 
SCCF RECON,ioos:station:SCCF:51:1,2010-07-11T03:00:00Z,26.5545,-82.1715,1.625,6.64,1111122 
SCCF RECON,ioos:station:SCCF:51:1,2010-07-11T04:00:00Z,26.5545,-82.1715,1.771,6.58,1111122 
SCCF RECON,ioos:station:SCCF:51:1,2010-07-11T05:00:00Z,26.5545,-82.1715,1.89,6.58,1111122 
SCCF RECON,ioos:station:SCCF:51:1,2010-07-11T06:00:00Z,26.5545,-82.1715,1.952,6.41,1111122 
SCCF RECON,ioos:station:SCCF:51:1,2010-07-11T07:00:00Z,26.5545,-82.1715,1.95,6.33,1111122 
SCCF RECON,ioos:station:SCCF:51:1,2010-07-11T08:00:00Z,26.5545,-82.1715,1.902,6.02,1111122 
SCCF RECON,ioos:station:SCCF:51:1,2010-07-11T09:00:00Z,26.5545,-82.1715,1.846,6.16,1111122 
SCCF RECON,ioos:station:SCCF:51:1,2010-07-11T10:00:00Z,26.5545,-82.1715,1.841,5.84,1111122 
SCCF RECON,ioos:station:SCCF:51:1,2010-07-11T11:00:00Z,26.5545,-82.1715,1.871,6.11,1111122 
SCCF RECON,ioos:station:SCCF:51:1,2010-07-11T12:00:00Z,26.5545,-82.1715,1.93,5.99,1111122 
SCCF RECON,ioos:station:SCCF:51:1,2010-07-11T13:00:00Z,26.5545,-82.1715,2.016,5.81,1111122 
SCCF RECON,ioos:station:SCCF:51:1,2010-07-11T14:00:00Z,26.5545,-82.1715,2.104,6.1,1111122 
SCCF RECON,ioos:station:SCCF:51:1,2010-07-11T15:00:00Z,26.5545,-82.1715,2.199,6.22,1111122 
SCCF RECON,ioos:station:SCCF:51:1,2010-07-11T16:00:00Z,26.5545,-82.1715,2.268,6.36,1111122 
SCCF RECON,ioos:station:SCCF:51:1,2010-07-11T17:00:00Z,26.5545,-82.1715,2.28,6.49,1111122 
SCCF RECON,ioos:station:SCCF:51:1,2010-07-11T18:00:00Z,26.5545,-82.1715,2.22,6.49,1111122 
SCCF RECON,ioos:station:SCCF:51:1,2010-07-11T19:00:00Z,26.5545,-82.1715,2.116,6.6,1111122 